Weather History for Dumas, TX

Change the Weather History Date:

Monday, May 7, 2012

  Actual Average (KBGD) Record (KBGD)
Temperature  
Mean Temperature 56 °F 65 °F  
Max Temperature 62 °F 78 °F 96 °F (2002)
Min Temperature 50 °F 52 °F 38 °F (1960)
Degree Days  
Heating Degree Days 9 3  
Month to date heating degree days 25  
Since 1 July heating degree days 3728  
Cooling Degree Days 0 3  
Month to date cooling degree days 20  
Year to date cooling degree days 64  
Growing Degree Days 6 (Base 50)    
Moisture  
Dew Point 38 °F    
Average Humidity 52    
Maximum Humidity 82    
Minimum Humidity 37    
Precipitation  
Precipitation 0.00 in 0.04 in 2.18 in (1995)
Month to date precipitation 0.33  
Year to date precipitation 4.49  
Snow  
Snow 0.00 in - T in (1997)
Month to date snowfall  
Since 1 July snowfall  
Snow Depth -    
Sea Level Pressure  
Sea Level Pressure 30.15 in    
Wind  
Wind Speed 16 mph (NNE)    
Max Wind Speed 25 mph    
Max Gust Speed 33 mph    
Visibility 10 miles    
Events      
T = Trace of Precipitation, MM = Missing Value Source: NWS Daily Summary

Daily Weather History Graph

Daily Weather History Graph

Search for Another Location

Airport:

Trip Planner

Search our weather history database for the weather conditions in past years. The results will help you decide how hot, cold, wet, or windy it might be!

Date:

Astronomy

May. 07, 2012 Rise Set
Actual Time 6:49 AM CDT 8:40 PM CDT
Civil Twilight 6:21 AM CDT 9:08 PM CDT
Nautical Twilight 5:47 AM CDT 9:42 PM CDT
Astronomical Twilight 5:11 AM CDT 10:18 PM CDT
Moon 10:51 PM CDT (5/7) 7:59 AM CDT (5/7)
Length of Visible Light 14h 47m
Length of Day
13h 51m
Waning Gibbous, 96% of the Moon is Illuminated
May 7
Waning Gibbous
May 12
Last Quarter
May 20
New
May 28
First Quarter
Jun 4
Full

Hourly Weather History & Observations

Time (CDT) Temp. Dew Point Humidity Pressure Visibility Wind Dir Wind Speed Gust Speed Precip Events Conditions
12:15 AM 59.0 °F 51.8 °F 77% 30.10 in 10.0 mi NNE 12.7 mph - N/A   Overcast
12:35 AM 59.0 °F 51.8 °F 77% 30.10 in 10.0 mi NNE 12.7 mph - N/A   Mostly Cloudy
12:55 AM 59.0 °F 51.8 °F 77% 30.10 in 10.0 mi NNE 13.8 mph - N/A   Scattered Clouds
1:15 AM 59.0 °F 51.8 °F 77% 30.09 in 10.0 mi NNE 15.0 mph 21.9 mph N/A   Clear
1:35 AM 57.2 °F 51.8 °F 82% 30.08 in 10.0 mi NNE 17.3 mph 21.9 mph N/A   Scattered Clouds
1:55 AM 57.2 °F 50.0 °F 77% 30.09 in 10.0 mi NNE 16.1 mph - N/A   Mostly Cloudy
2:15 AM 57.2 °F 50.0 °F 77% 30.08 in 10.0 mi NNE 13.8 mph 20.7 mph N/A   Mostly Cloudy
2:35 AM 55.4 °F 50.0 °F 82% 30.08 in 10.0 mi NNE 9.2 mph - N/A   Scattered Clouds
2:55 AM 55.4 °F 50.0 °F 82% 30.11 in 10.0 mi North 17.3 mph - N/A   Mostly Cloudy
3:15 AM 57.2 °F 48.2 °F 72% 30.10 in 10.0 mi North 15.0 mph 24.2 mph N/A   Overcast
3:35 AM 57.2 °F 46.4 °F 67% 30.08 in 10.0 mi NNE 20.7 mph 25.3 mph N/A   Overcast
3:55 AM 55.4 °F 44.6 °F 67% 30.07 in 10.0 mi NNE 24.2 mph 32.2 mph N/A   Scattered Clouds
4:15 AM 55.4 °F 44.6 °F 67% 30.06 in 10.0 mi NE 20.7 mph 27.6 mph N/A   Scattered Clouds
4:35 AM 53.6 °F 44.6 °F 72% 30.06 in 10.0 mi NNE 16.1 mph 21.9 mph N/A   Scattered Clouds
4:55 AM 53.6 °F 41.0 °F 62% 30.07 in 10.0 mi NE 17.3 mph 23.0 mph N/A   Clear
5:15 AM 51.8 °F 41.0 °F 67% 30.07 in 10.0 mi NE 16.1 mph 21.9 mph N/A   Clear
5:35 AM 51.8 °F 39.2 °F 62% 30.07 in 10.0 mi NNE 13.8 mph - N/A   Clear
5:55 AM 51.8 °F 35.6 °F 54% 30.11 in 10.0 mi NNE 13.8 mph 23.0 mph N/A   Mostly Cloudy
6:15 AM 50.0 °F 37.4 °F 62% 30.12 in 10.0 mi North 10.4 mph - N/A   Overcast
6:35 AM 51.8 °F 35.6 °F 54% 30.15 in 10.0 mi North 10.4 mph - N/A   Overcast
6:55 AM 51.8 °F 35.6 °F 54% 30.16 in 10.0 mi North 11.5 mph - N/A   Overcast
7:15 AM 51.8 °F 33.8 °F 50% 30.17 in 10.0 mi North 9.2 mph - N/A   Overcast
7:35 AM 51.8 °F 32.0 °F 47% 30.19 in 10.0 mi North 12.7 mph - N/A   Overcast
7:55 AM 51.8 °F 32.0 °F 47% 30.20 in 10.0 mi North 15.0 mph - N/A   Overcast
8:15 AM 51.8 °F 32.0 °F 47% 30.21 in 10.0 mi North 16.1 mph - N/A   Overcast
8:35 AM 51.8 °F 32.0 °F 47% 30.20 in 10.0 mi North 19.6 mph 24.2 mph N/A   Overcast
8:55 AM 51.8 °F 32.0 °F 47% 30.20 in 10.0 mi North 17.3 mph - N/A   Overcast
9:15 AM 53.6 °F 33.8 °F 47% 30.18 in 10.0 mi NNE 20.7 mph 25.3 mph N/A   Overcast
9:35 AM 53.6 °F 33.8 °F 47% 30.18 in 10.0 mi NNE 25.3 mph 33.4 mph N/A   Overcast
9:55 AM 53.6 °F 33.8 °F 47% 30.19 in 10.0 mi NNE 18.4 mph 29.9 mph N/A   Overcast
10:15 AM 53.6 °F 35.6 °F 51% 30.19 in 10.0 mi NNE 21.9 mph 28.8 mph N/A   Overcast
10:35 AM 55.4 °F 35.6 °F 47% 30.18 in 10.0 mi NNE 23.0 mph 29.9 mph N/A   Overcast
10:55 AM 55.4 °F 35.6 °F 47% 30.18 in 10.0 mi NNE 20.7 mph 32.2 mph N/A   Overcast
11:15 AM 55.4 °F 35.6 °F 47% 30.19 in 10.0 mi NNE 20.7 mph 28.8 mph N/A   Overcast
11:35 AM 55.4 °F 35.6 °F 47% 30.19 in 10.0 mi NNE 24.2 mph 31.1 mph N/A   Overcast
11:55 AM 55.4 °F 35.6 °F 47% 30.20 in 10.0 mi NNE 23.0 mph 31.1 mph N/A   Overcast
12:15 PM 57.2 °F 35.6 °F 44% 30.19 in 10.0 mi NNE 21.9 mph 26.5 mph N/A   Overcast
12:35 PM 55.4 °F 37.4 °F 51% 30.20 in 10.0 mi NNE 18.4 mph 26.5 mph N/A   Overcast
12:55 PM 57.2 °F 37.4 °F 48% 30.20 in 10.0 mi NNE 24.2 mph 29.9 mph N/A   Overcast
1:15 PM 57.2 °F 35.6 °F 44% 30.19 in 10.0 mi NNE 25.3 mph 29.9 mph N/A   Overcast
1:35 PM 55.4 °F 37.4 °F 51% 30.19 in 10.0 mi NNE 20.7 mph 28.8 mph N/A   Overcast
1:55 PM 55.4 °F 37.4 °F 51% 30.20 in 10.0 mi NNE 18.4 mph 24.2 mph N/A   Overcast
2:15 PM 57.2 °F 37.4 °F 48% 30.19 in 10.0 mi NNE 20.7 mph 27.6 mph N/A   Overcast
2:35 PM 59.0 °F 37.4 °F 45% 30.20 in 10.0 mi NNE 17.3 mph 26.5 mph N/A   Overcast
2:55 PM 59.0 °F 37.4 °F 45% 30.17 in 10.0 mi NE 19.6 mph 25.3 mph N/A   Overcast
3:15 PM 59.0 °F 37.4 °F 45% 30.17 in 10.0 mi NE 15.0 mph 27.6 mph N/A   Overcast
3:35 PM 59.0 °F 35.6 °F 42% 30.16 in 10.0 mi NE 18.4 mph 24.2 mph N/A   Overcast
3:55 PM 60.8 °F 35.6 °F 39% 30.14 in 10.0 mi NE 20.7 mph 26.5 mph N/A   Overcast
4:15 PM 62.6 °F 35.6 °F 37% 30.14 in 10.0 mi NE 17.3 mph 25.3 mph N/A   Overcast
4:35 PM 62.6 °F 35.6 °F 37% 30.12 in 10.0 mi NNE 19.6 mph 25.3 mph N/A   Overcast
4:55 PM 62.6 °F 37.4 °F 39% 30.11 in 10.0 mi NNE 17.3 mph 28.8 mph N/A   Overcast
5:15 PM 62.6 °F 37.4 °F 39% 30.10 in 10.0 mi NE 20.7 mph 25.3 mph N/A   Overcast
5:35 PM 62.6 °F 37.4 °F 39% 30.09 in 10.0 mi NE 18.4 mph 28.8 mph N/A   Overcast
5:55 PM 60.8 °F 37.4 °F 42% 30.10 in 10.0 mi NE 20.7 mph 26.5 mph N/A   Overcast
6:15 PM 60.8 °F 35.6 °F 39% 30.11 in 10.0 mi ENE 23.0 mph 27.6 mph N/A   Overcast
6:35 PM 60.8 °F 37.4 °F 42% 30.11 in 10.0 mi ENE 21.9 mph - N/A   Overcast
6:55 PM 60.8 °F 37.4 °F 42% 30.12 in 10.0 mi ENE 19.6 mph 24.2 mph N/A   Overcast
7:15 PM 59.0 °F 35.6 °F 42% 30.12 in 10.0 mi ENE 17.3 mph - N/A   Overcast
7:35 PM 59.0 °F 35.6 °F 42% 30.13 in 10.0 mi ENE 15.0 mph 21.9 mph N/A   Overcast
7:55 PM 59.0 °F 37.4 °F 45% 30.13 in 10.0 mi NE 15.0 mph - N/A   Overcast
8:15 PM 59.0 °F 37.4 °F 45% 30.15 in 10.0 mi NE 15.0 mph - N/A   Overcast
8:35 PM 59.0 °F 37.4 °F 45% 30.16 in 10.0 mi NE 10.4 mph - N/A   Overcast
8:55 PM 59.0 °F 37.4 °F 45% 30.15 in 10.0 mi ENE 15.0 mph - N/A   Overcast
9:15 PM 57.2 °F 35.6 °F 44% 30.15 in 10.0 mi NE 15.0 mph 20.7 mph N/A   Overcast
9:35 PM 57.2 °F 35.6 °F 44% 30.17 in 10.0 mi NE 13.8 mph - N/A   Overcast
9:55 PM 55.4 °F 35.6 °F 47% 30.17 in 10.0 mi NE 12.7 mph - N/A   Mostly Cloudy
10:15 PM 55.4 °F 33.8 °F 44% 30.19 in 10.0 mi NE 8.1 mph - N/A   Overcast
10:35 PM 55.4 °F 33.8 °F 44% 30.20 in 10.0 mi NE 10.4 mph - N/A   Overcast
10:55 PM 55.4 °F 35.6 °F 47% 30.20 in 10.0 mi NE 10.4 mph - N/A   Overcast
11:15 PM 55.4 °F 35.6 °F 47% 30.19 in 10.0 mi NNE 10.4 mph - N/A   Overcast
11:35 PM 55.4 °F 35.6 °F 47% 30.19 in 10.0 mi NE 9.2 mph - N/A   Overcast
11:55 PM 55.4 °F 33.8 °F 44% 30.18 in 10.0 mi NE 15.0 mph - N/A   Overcast